﻿_id,日時,平均風速(m/s),平均風向,最大瞬間風速(m/s),最大風速時風向,気温(℃),湿度(%),10分間移動積算雨量(mm),1時間移動積算雨量(mm),日雨量(mm),累計雨量(mm)
1,2021-10-18T00:00:00,0.4,東,1.2,東,9.8,88.5,0,0,9.5,12
2,2021-10-18T00:01:00,0.3,東南東,0.9,北北東,9.7,88.6,0,0,0,12
3,2021-10-18T00:02:00,0.3,南南東,0.7,東南東,9.6,88.5,0,0,0,12
4,2021-10-18T00:03:00,0.3,南,0.7,東南東,9.6,89.4,0,0,0,12
5,2021-10-18T00:04:00,0.3,南,0.7,東南東,9.6,90.2,0,0,0,12
6,2021-10-18T00:05:00,0.3,南,0.7,東南東,9.6,90.7,0,0,0,12
7,2021-10-18T00:06:00,0.3,南,0.8,南南東,9.7,91.3,0,0,0,12
8,2021-10-18T00:07:00,0.3,南,1,南東,9.5,90.9,0,0,0,12
9,2021-10-18T00:08:00,0.4,南,1,南東,9.6,90.8,0,0,0,12
10,2021-10-18T00:09:00,0.4,南,1,南東,9.5,91,0,0,0,12
11,2021-10-18T00:10:00,0.5,南南東,1,南東,9.5,90.8,0,0,0,12
12,2021-10-18T00:11:00,0.5,南南東,1,南東,9.5,91.2,0,0,0,12
13,2021-10-18T00:12:00,0.6,南東,1,南東,9.5,90.8,0,0,0,12
14,2021-10-18T00:13:00,0.6,南東,1,南東,9.4,90.5,0,0,0,12
15,2021-10-18T00:14:00,0.6,東南東,1,南東,9.4,90.6,0,0,0,12
16,2021-10-18T00:15:00,0.7,東,1,南東,9.5,90.9,0,0,0,12
17,2021-10-18T00:16:00,0.7,東,1,南東,9.7,91.8,0,0,0,12
18,2021-10-18T00:17:00,0.6,東,1,東南東,9.8,91.9,0,0,0,12
19,2021-10-18T00:18:00,0.6,東北東,0.9,東北東,9.8,91.5,0,0,0,12
20,2021-10-18T00:19:00,0.6,東北東,0.9,東北東,9.8,91.2,0,0,0,12
21,2021-10-18T00:20:00,0.5,東北東,0.9,東北東,9.7,90.7,0,0,0,12
22,2021-10-18T00:21:00,0.5,東北東,0.9,東北東,9.8,90.6,0,0,0,12
23,2021-10-18T00:22:00,0.5,東北東,0.9,東北東,9.7,90.2,0,0,0,12
24,2021-10-18T00:23:00,0.5,東北東,0.9,東,9.7,90.1,0,0,0,12
25,2021-10-18T00:24:00,0.5,東北東,0.9,東,9.6,89.6,0,0,0,12
26,2021-10-18T00:25:00,0.4,東北東,0.9,東,9.7,89.7,0,0,0,12
27,2021-10-18T00:26:00,0.5,東,0.9,東,9.6,89.9,0,0,0,12
28,2021-10-18T00:27:00,0.5,東,1.1,東,9.4,89.1,0,0,0,12
29,2021-10-18T00:28:00,0.6,東,1.1,東,9.5,89.3,0,0,0,12
30,2021-10-18T00:29:00,0.6,東,1.1,東,9.5,89.6,0,0,0,12
31,2021-10-18T00:30:00,0.7,東,1.2,東,9.3,89,0,0,0,12
32,2021-10-18T00:31:00,0.8,東,1.4,東,9.5,90.1,0,0,0,12
33,2021-10-18T00:32:00,0.9,東,1.4,東,9.4,90,0,0,0,12
34,2021-10-18T00:33:00,0.9,東,1.4,東,9.4,89.7,0,0,0,12
35,2021-10-18T00:34:00,0.9,東,1.4,東,9.6,90.6,0,0,0,12
36,2021-10-18T00:35:00,1,東,1.4,東,9.6,90.5,0,0,0,12
37,2021-10-18T00:36:00,1,東,1.4,東,9.7,90.1,0,0,0,12
38,2021-10-18T00:37:00,0.9,東,1.4,東,9.7,90.2,0,0,0,12
39,2021-10-18T00:38:00,0.9,東,1.4,東,9.7,89.8,0,0,0,12
40,2021-10-18T00:39:00,0.9,東,1.4,東,9.7,89.7,0,0,0,12
41,2021-10-18T00:40:00,0.9,東,1.5,東南東,9.8,89.6,0,0,0,12
42,2021-10-18T00:41:00,0.9,東,1.7,東南東,9.7,89.5,0,0,0,12
43,2021-10-18T00:42:00,0.9,東,1.7,東南東,9.7,89.1,0,0,0,12
44,2021-10-18T00:43:00,1,東,1.7,東南東,9.8,89.6,0,0,0,12
45,2021-10-18T00:44:00,1,東,1.7,東南東,9.9,89.8,0,0,0,12
46,2021-10-18T00:45:00,1,東南東,1.7,東南東,9.9,89.7,0,0,0,12
47,2021-10-18T00:46:00,1.1,東,1.7,東南東,9.9,89.6,0,0,0,12
48,2021-10-18T00:47:00,1.1,東南東,1.7,東南東,9.9,89.3,0,0,0,12
49,2021-10-18T00:48:00,1.1,東南東,1.7,東南東,9.8,89.1,0,0,0,12
50,2021-10-18T00:49:00,1.1,東南東,1.7,東南東,9.9,88.9,0,0,0,12
51,2021-10-18T00:50:00,1,東南東,1.7,東南東,9.8,89.1,0,0,0,12
52,2021-10-18T00:51:00,0.9,東南東,1.7,東,9.7,88.6,0,0,0,12
53,2021-10-18T00:52:00,0.8,東南東,1.7,東,9.6,88.3,0,0,0,12
54,2021-10-18T00:53:00,0.6,東南東,1.5,東,9.5,88.2,0,0,0,12
55,2021-10-18T00:54:00,0.5,南東,1.4,東,9.4,88.7,0,0,0,12
56,2021-10-18T00:55:00,0.4,南東,1.4,東,9.3,88.7,0,0,0,12
57,2021-10-18T00:56:00,0.3,南南東,1.2,東,9.3,89.3,0,0,0,12
58,2021-10-18T00:57:00,0.2,静穏,1.2,東,9.4,89.7,0,0,0,12
59,2021-10-18T00:58:00,0.1,静穏,0.8,東南東,9.3,90.1,0,0,0,12
60,2021-10-18T00:59:00,0.1,静穏,0.4,南東,9.4,90.5,0,0,0,12
61,2021-10-18T01:00:00,0,静穏,0.2,南,9.4,90.9,0,0,0,12
62,2021-10-18T01:01:00,0.1,静穏,0.5,南西,9.3,90.4,0,0,0,12
63,2021-10-18T01:02:00,0.1,静穏,0.5,南西,9.2,90.3,0,0,0,12
64,2021-10-18T01:03:00,0.1,静穏,0.5,南西,9.3,91.1,0,0,0,12
65,2021-10-18T01:04:00,0.1,静穏,0.5,南西,9.3,91.3,0,0,0,12
66,2021-10-18T01:05:00,0.1,静穏,0.5,南西,9.3,91.5,0,0,0,12
67,2021-10-18T01:06:00,0.2,静穏,0.5,南西,9.4,91.9,0,0,0,12
68,2021-10-18T01:07:00,0.2,静穏,0.6,東,9.3,91.8,0,0,0,12
69,2021-10-18T01:08:00,0.3,南東,0.8,東,9.4,91.6,0,0,0,12
70,2021-10-18T01:09:00,0.4,南東,0.9,東,9.5,92.5,0,0,0,12
71,2021-10-18T01:10:00,0.4,東南東,0.9,東,9.6,92.4,0,0,0,12
72,2021-10-18T01:11:00,0.4,東南東,0.9,東,9.6,92.1,0,0,0,12
73,2021-10-18T01:12:00,0.5,東,0.9,東,9.7,92.1,0,0,0,12
74,2021-10-18T01:13:00,0.5,東,0.9,東,9.6,91.9,0,0,0,12
75,2021-10-18T01:14:00,0.5,東,0.9,東,9.5,91.2,0,0,0,12
76,2021-10-18T01:15:00,0.5,東北東,0.9,東,9.6,91.3,0,0,0,12
77,2021-10-18T01:16:00,0.6,東北東,0.9,東,9.6,91.8,0,0,0,12
78,2021-10-18T01:17:00,0.5,東北東,0.9,東,9.7,91.6,0,0,0,12
79,2021-10-18T01:18:00,0.5,東北東,0.9,東,9.7,91.7,0,0,0,12
80,2021-10-18T01:19:00,0.5,東北東,0.7,東北東,9.7,91.4,0,0,0,12
81,2021-10-18T01:20:00,0.5,東北東,0.7,東北東,9.6,91.3,0,0,0,12
82,2021-10-18T01:21:00,0.4,東北東,0.7,東北東,9.7,91.3,0,0,0,12
83,2021-10-18T01:22:00,0.4,東北東,0.7,東北東,9.8,91.6,0,0,0,12
84,2021-10-18T01:23:00,0.3,東北東,0.7,東北東,9.6,90.8,0,0,0,12
85,2021-10-18T01:24:00,0.3,東北東,0.7,東北東,9.7,90.9,0,0,0,12
86,2021-10-18T01:25:00,0.3,東北東,0.7,東北東,9.6,90.9,0,0,0,12
87,2021-10-18T01:26:00,0.3,東北東,0.6,東,9.7,91.2,0,0,0,12
88,2021-10-18T01:27:00,0.3,東北東,0.6,東,9.7,91,0,0,0,12
89,2021-10-18T01:28:00,0.3,東北東,0.6,東,9.6,91.3,0,0,0,12
90,2021-10-18T01:29:00,0.2,静穏,0.6,東,9.7,91,0,0,0,12
91,2021-10-18T01:30:00,0.2,静穏,0.6,東,9.6,90.8,0,0,0,12
92,2021-10-18T01:31:00,0.2,静穏,0.6,東,9.6,90.7,0,0,0,12
93,2021-10-18T01:32:00,0.2,静穏,0.6,東,9.6,90.7,0,0,0,12
94,2021-10-18T01:33:00,0.2,静穏,0.6,東,9.5,90.3,0,0,0,12
95,2021-10-18T01:34:00,0.2,静穏,0.6,東,9.4,90,0,0,0,12
96,2021-10-18T01:35:00,0.2,静穏,0.6,東,9.5,90.6,0,0,0,12
97,2021-10-18T01:36:00,0.1,静穏,0.5,東,9.4,91.1,0,0,0,12
98,2021-10-18T01:37:00,0.1,静穏,0.4,東,9.3,90.7,0,0,0,12
99,2021-10-18T01:38:00,0.1,静穏,0.4,東,9.2,90.6,0,0,0,12
100,2021-10-18T01:39:00,0.1,静穏,0.4,西南西,9.3,91.2,0,0,0,12
101,2021-10-18T01:40:00,0.1,静穏,0.4,西南西,9.3,91.8,0,0,0,12
102,2021-10-18T01:41:00,0.1,静穏,0.4,西南西,9.3,92,0,0,0,12
103,2021-10-18T01:42:00,0.1,静穏,0.4,西南西,9.2,92.1,0,0,0,12
104,2021-10-18T01:43:00,0.1,静穏,0.4,西南西,9.2,91.9,0,0,0,12
105,2021-10-18T01:44:00,0.1,静穏,0.4,西南西,9,92,0,0,0,12
106,2021-10-18T01:45:00,0.1,静穏,0.4,西南西,9,91.7,0,0,0,12
107,2021-10-18T01:46:00,0.1,静穏,0.4,西南西,9.1,92.2,0,0,0,12
108,2021-10-18T01:47:00,0.1,静穏,0.4,西南西,9,92.4,0,0,0,12
109,2021-10-18T01:48:00,0.1,静穏,0.3,西南西,9,92.5,0,0,0,12
110,2021-10-18T01:49:00,0,静穏,0.2,西北西,9,92.7,0,0,0,12
111,2021-10-18T01:50:00,0,静穏,0.2,西北西,9,93.1,0,0,0,12
112,2021-10-18T01:51:00,0,静穏,0.3,東,9,93.3,0,0,0,12
113,2021-10-18T01:52:00,0.1,静穏,0.7,東,8.9,93,0,0,0,12
114,2021-10-18T01:53:00,0.2,静穏,0.8,東,8.9,93.3,0,0,0,12
115,2021-10-18T01:54:00,0.2,静穏,0.9,東,8.9,92.7,0,0,0,12
116,2021-10-18T01:55:00,0.3,東北東,0.9,東,8.8,92.7,0,0,0,12
117,2021-10-18T01:56:00,0.3,東,0.9,東,8.9,93.1,0,0,0,12
118,2021-10-18T01:57:00,0.3,東北東,0.9,東,9,93.8,0,0,0,12
119,2021-10-18T01:58:00,0.4,東北東,0.9,東,9,93.7,0,0,0,12
120,2021-10-18T01:59:00,0.4,東北東,0.9,東,9.1,93.5,0,0,0,12
121,2021-10-18T02:00:00,0.5,東北東,0.9,東,9,93.1,0,0,0,12
122,2021-10-18T02:01:00,0.5,東北東,0.9,東,8.9,92.9,0,0,0,12
123,2021-10-18T02:02:00,0.5,東北東,0.9,東,9,92.8,0,0,0,12
124,2021-10-18T02:03:00,0.5,東北東,1.1,東北東,8.9,92.8,0,0,0,12
125,2021-10-18T02:04:00,0.5,東北東,1.2,東,8.8,92.4,0,0,0,12
126,2021-10-18T02:05:00,0.6,東北東,1.2,東,8.8,92.3,0,0,0,12
127,2021-10-18T02:06:00,0.6,東北東,1.2,東,8.8,92.6,0,0,0,12
128,2021-10-18T02:07:00,0.6,東北東,1.2,東,8.8,92.1,0,0,0,12
129,2021-10-18T02:08:00,0.6,東,1.2,東,8.7,92.2,0,0,0,12
130,2021-10-18T02:09:00,0.7,東,1.2,東,8.7,92.5,0,0,0,12
131,2021-10-18T02:10:00,0.7,東,1.2,東,8.6,92.2,0,0,0,12
132,2021-10-18T02:11:00,0.7,東,1.2,東,8.7,92.5,0,0,0,12
133,2021-10-18T02:12:00,0.7,東,1.2,東,8.7,92.7,0,0,0,12
134,2021-10-18T02:13:00,0.7,東,1.2,東,8.7,92.9,0,0,0,12
135,2021-10-18T02:14:00,0.7,東,1.1,東,8.7,92.7,0,0,0,12
136,2021-10-18T02:15:00,0.6,東,1.1,東,8.7,92.6,0,0,0,12
137,2021-10-18T02:16:00,0.6,東,1.1,東,8.6,92.6,0,0,0,12
138,2021-10-18T02:17:00,0.6,東,1.1,東,8.5,92.3,0,0,0,12
139,2021-10-18T02:18:00,0.6,東南東,1.1,東,8.6,92.3,0,0,0,12
140,2021-10-18T02:19:00,0.6,東南東,1.1,東,8.7,93.1,0,0,0,12
141,2021-10-18T02:20:00,0.5,東南東,1.1,東,8.6,92.9,0,0,0,12
142,2021-10-18T02:21:00,0.6,東南東,1.2,東,8.6,92.6,0,0,0,12
143,2021-10-18T02:22:00,0.6,東南東,1.6,東,8.6,92.6,0,0,0,12
144,2021-10-18T02:23:00,0.7,東南東,1.6,東,8.6,92.9,0,0,0,12
145,2021-10-18T02:24:00,0.7,東南東,1.6,東,8.6,92.7,0,0,0,12
146,2021-10-18T02:25:00,0.7,東南東,1.6,東,8.7,92.9,0,0,0,12
147,2021-10-18T02:26:00,0.7,東,1.6,東,8.7,92.9,0,0,0,12
148,2021-10-18T02:27:00,0.8,東,1.6,東,8.8,92.9,0,0,0,12
149,2021-10-18T02:28:00,0.9,東,1.6,東,8.8,93.1,0,0,0,12
150,2021-10-18T02:29:00,0.9,東,1.6,東,8.8,93,0,0,0,12
151,2021-10-18T02:30:00,0.9,東,1.6,東,8.8,92.7,0,0,0,12
152,2021-10-18T02:31:00,0.9,東,1.6,東,8.7,92.4,0,0,0,12
153,2021-10-18T02:32:00,0.9,東北東,1.5,東,8.7,91.8,0,0,0,12
154,2021-10-18T02:33:00,0.8,東,1.4,東北東,8.7,91.9,0,0,0,12
155,2021-10-18T02:34:00,0.8,東,1.4,東北東,8.6,91.9,0,0,0,12
156,2021-10-18T02:35:00,0.8,東,1.4,東北東,8.6,91.4,0,0,0,12
157,2021-10-18T02:36:00,0.8,東,1.1,東北東,8.5,91.6,0,0,0,12
158,2021-10-18T02:37:00,0.7,東,1.1,東北東,8.4,91.1,0,0,0,12
159,2021-10-18T02:38:00,0.7,東,1.1,東北東,8.4,90.9,0,0,0,12
160,2021-10-18T02:39:00,0.7,東,1.1,東北東,8.5,91.9,0,0,0,12
161,2021-10-18T02:40:00,0.6,東北東,1.1,東北東,8.6,92.4,0,0,0,12
162,2021-10-18T02:41:00,0.5,東北東,1,東南東,8.7,92.5,0,0,0,12
163,2021-10-18T02:42:00,0.5,東北東,1,東南東,8.5,91.8,0,0,0,12
164,2021-10-18T02:43:00,0.4,北東,0.9,東,8.5,91.6,0,0,0,12
165,2021-10-18T02:44:00,0.3,北東,0.9,東,8.4,91.6,0,0,0,12
166,2021-10-18T02:45:00,0.3,北北東,0.9,東,8.4,92,0,0,0,12
167,2021-10-18T02:46:00,0.2,静穏,0.7,東北東,8.4,92.4,0,0,0,12
168,2021-10-18T02:47:00,0.2,静穏,0.6,東北東,8.4,92.4,0,0,0,12
169,2021-10-18T02:48:00,0.2,静穏,0.9,東北東,8.3,92.4,0,0,0,12
170,2021-10-18T02:49:00,0.2,静穏,0.9,東北東,8.4,93,0,0,0,12
171,2021-10-18T02:50:00,0.2,静穏,0.9,東北東,8.5,93.2,0,0,0,12
172,2021-10-18T02:51:00,0.3,北北東,0.9,東北東,8.5,93.3,0,0,0,12
173,2021-10-18T02:52:00,0.3,北東,0.9,東北東,8.4,93.1,0,0,0,12
174,2021-10-18T02:53:00,0.3,北東,0.9,東北東,8.6,93.4,0,0,0,12
175,2021-10-18T02:54:00,0.4,北東,0.9,東北東,8.6,93.6,0,0,0,12
176,2021-10-18T02:55:00,0.4,北東,0.9,東北東,8.7,93.9,0,0,0,12
177,2021-10-18T02:56:00,0.5,北東,0.9,東北東,8.7,93.7,0,0,0,12
178,2021-10-18T02:57:00,0.5,北東,0.9,東北東,8.7,93.4,0,0,0,12
179,2021-10-18T02:58:00,0.5,北東,0.9,北東,8.6,92.8,0,0,0,12
180,2021-10-18T02:59:00,0.5,北東,0.9,北東,8.5,92.4,0,0,0,12
181,2021-10-18T03:00:00,0.4,北北東,0.9,北東,8.4,92.3,0,0,0,12
182,2021-10-18T03:01:00,0.4,北北東,0.9,北東,8.3,92.2,0,0,0,12
183,2021-10-18T03:02:00,0.4,北北東,0.9,北東,8.3,92.1,0,0,0,12
184,2021-10-18T03:03:00,0.3,北北東,0.9,北東,8.3,92.4,0,0,0,12
185,2021-10-18T03:04:00,0.3,北,0.9,北東,8.3,92.9,0,0,0,12
186,2021-10-18T03:05:00,0.3,北北西,0.9,北東,8.3,93.1,0,0,0,12
187,2021-10-18T03:06:00,0.2,静穏,0.8,北東,8.3,92.8,0,0,0,12
188,2021-10-18T03:07:00,0.2,静穏,0.4,西,8.3,93,0,0,0,12
189,2021-10-18T03:08:00,0.1,静穏,0.4,西,8.4,93.6,0,0,0,12
190,2021-10-18T03:09:00,0.1,静穏,0.4,西,8.2,93.1,0,0,0,12
191,2021-10-18T03:10:00,0.2,静穏,0.5,東北東,8.3,93.5,0,0,0,12
192,2021-10-18T03:11:00,0.2,静穏,0.5,東北東,8.2,93.2,0,0,0,12
193,2021-10-18T03:12:00,0.2,静穏,0.5,東北東,8.3,93.4,0,0,0,12
194,2021-10-18T03:13:00,0.2,静穏,0.5,東北東,8.5,94.2,0,0,0,12
195,2021-10-18T03:14:00,0.2,静穏,0.9,東,8.5,94.2,0,0,0,12
196,2021-10-18T03:15:00,0.3,東北東,1,東,8.2,93.8,0,0,0,12
197,2021-10-18T03:16:00,0.3,東北東,1,東,8.1,92.5,0,0,0,12
198,2021-10-18T03:17:00,0.4,東北東,1,東,8.3,93.1,0,0,0,12
199,2021-10-18T03:18:00,0.4,東北東,1,東,8.3,93.5,0,0,0,12
200,2021-10-18T03:19:00,0.4,東,1,東,8.1,93.2,0,0,0,12
201,2021-10-18T03:20:00,0.4,東,1,東,8,92.6,0,0,0,12
202,2021-10-18T03:21:00,0.5,東,1,東,7.9,92.7,0,0,0,12
203,2021-10-18T03:22:00,0.5,東,1,東,7.9,92.5,0,0,0,12
204,2021-10-18T03:23:00,0.6,東,1,東,7.9,92.8,0,0,0,12
205,2021-10-18T03:24:00,0.6,東,1,東,7.9,92.8,0,0,0,12
206,2021-10-18T03:25:00,0.5,東,1,東南東,8,93.3,0,0,0,12
207,2021-10-18T03:26:00,0.5,東,1,東南東,8,93.1,0,0,0,12
208,2021-10-18T03:27:00,0.5,東,1,東南東,7.9,93,0,0,0,12
209,2021-10-18T03:28:00,0.5,東,1,東南東,8,93.2,0,0,0,12
210,2021-10-18T03:29:00,0.5,東,1,東南東,8,93.3,0,0,0,12
211,2021-10-18T03:30:00,0.5,東,1,東南東,8,93.3,0,0,0,12
212,2021-10-18T03:31:00,0.5,東,1,東南東,7.8,92.1,0,0,0,12
213,2021-10-18T03:32:00,0.5,東,1,東南東,7.9,92.7,0,0,0,12
214,2021-10-18T03:33:00,0.5,東,1,東南東,7.9,92.9,0,0,0,12
215,2021-10-18T03:34:00,0.6,東,1,東南東,7.9,92.8,0,0,0,12
216,2021-10-18T03:35:00,0.6,東,1.2,東,7.9,92.9,0,0,0,12
217,2021-10-18T03:36:00,0.7,東,1.2,東,7.9,93.1,0,0,0,12
218,2021-10-18T03:37:00,0.7,東,1.4,東,7.8,92.4,0,0,0,12
219,2021-10-18T03:38:00,0.8,東,1.4,東,7.8,92.3,0,0,0,12
220,2021-10-18T03:39:00,0.8,東,1.4,東,7.9,92.7,0,0,0,12
221,2021-10-18T03:40:00,0.8,東,1.4,東,7.8,92.8,0,0,0,12
222,2021-10-18T03:41:00,0.8,東,1.4,東,7.9,92.5,0,0,0,12
223,2021-10-18T03:42:00,0.8,東,1.4,東,8,92.9,0,0,0,12
224,2021-10-18T03:43:00,0.8,東,1.4,東,8,92.9,0,0,0,12
225,2021-10-18T03:44:00,0.7,東,1.4,東,7.9,92.7,0,0,0,12
226,2021-10-18T03:45:00,0.6,東,1.4,東,7.9,92.4,0,0,0,12
227,2021-10-18T03:46:00,0.6,東,1.4,東,7.9,92.3,0,0,0,12
228,2021-10-18T03:47:00,0.5,東,1.4,東,7.9,92.6,0,0,0,12
229,2021-10-18T03:48:00,0.4,東,1.1,東,7.9,92.2,0,0,0,12
230,2021-10-18T03:49:00,0.3,東,0.9,東北東,7.7,91.8,0,0,0,12
231,2021-10-18T03:50:00,0.3,東,0.8,東,7.8,92.1,0,0,0,12
232,2021-10-18T03:51:00,0.3,東南東,0.8,東,7.8,92.4,0,0,0,12
233,2021-10-18T03:52:00,0.3,東南東,0.8,東,7.8,92.4,0,0,0,12
234,2021-10-18T03:53:00,0.3,東南東,0.8,東,8.1,93.2,0,0,0,12
235,2021-10-18T03:54:00,0.3,東南東,0.8,東,8.1,93.3,0,0,0,12
236,2021-10-18T03:55:00,0.3,東南東,0.8,東,8,92.8,0,0,0,12
237,2021-10-18T03:56:00,0.4,東南東,0.9,東南東,8,92.4,0,0,0,12
238,2021-10-18T03:57:00,0.4,東南東,1.2,東,7.9,92.2,0,0,0,12
239,2021-10-18T03:58:00,0.5,東南東,1.3,東,7.8,91.9,0,0,0,12
240,2021-10-18T03:59:00,0.6,東南東,1.3,東,7.8,91.7,0,0,0,12
241,2021-10-18T04:00:00,0.7,東南東,1.3,東,7.6,91.5,0,0,0,12
242,2021-10-18T04:01:00,0.7,東南東,1.3,東,7.6,91.4,0,0,0,12
243,2021-10-18T04:02:00,0.8,東南東,1.3,東,7.8,92.3,0,0,0,12
244,2021-10-18T04:03:00,0.8,東,1.3,東,7.7,91.9,0,0,0,12
245,2021-10-18T04:04:00,0.9,東,1.3,東,7.8,92.5,0,0,0,12
246,2021-10-18T04:05:00,0.9,東,1.3,東,7.7,92.5,0,0,0,12
247,2021-10-18T04:06:00,0.9,東,1.3,東,7.7,92.2,0,0,0,12
248,2021-10-18T04:07:00,0.9,東,1.3,東,7.5,91.7,0,0,0,12
249,2021-10-18T04:08:00,0.9,東,1.3,東,7.6,91.7,0,0,0,12
250,2021-10-18T04:09:00,0.8,東,1.2,東,7.5,92.2,0,0,0,12
251,2021-10-18T04:10:00,0.8,東,1.2,東,7.7,92.5,0,0,0,12
252,2021-10-18T04:11:00,0.7,東,1.2,東,7.4,92.2,0,0,0,12
253,2021-10-18T04:12:00,0.7,東,1.2,東,7.5,91.9,0,0,0,12
254,2021-10-18T04:13:00,0.7,東,1.2,東,7.5,92.1,0,0,0,12
255,2021-10-18T04:14:00,0.7,東,1.2,東,7.6,92.7,0,0,0,12
256,2021-10-18T04:15:00,0.6,東,1.2,東,7.6,93,0,0,0,12
257,2021-10-18T04:16:00,0.6,東北東,1.2,東,7.5,92.5,0,0,0,12
258,2021-10-18T04:17:00,0.5,東北東,1.2,東北東,7.5,92.3,0,0,0,12
259,2021-10-18T04:18:00,0.4,東北東,1.2,東北東,7.6,92.9,0,0,0,12
260,2021-10-18T04:19:00,0.4,東北東,1.2,東北東,7.7,93.4,0,0,0,12
261,2021-10-18T04:20:00,0.4,北東,1.2,東北東,7.6,93.1,0,0,0,12
262,2021-10-18T04:21:00,0.3,北東,1.2,東北東,7.5,92.6,0,0,0,12
263,2021-10-18T04:22:00,0.3,北東,1.2,東北東,7.6,92.5,0,0,0,12
264,2021-10-18T04:23:00,0.2,静穏,1.1,東北東,7.5,93.1,0,0,0,12
265,2021-10-18T04:24:00,0.2,静穏,0.6,東北東,7.5,92.7,0,0,0,12
266,2021-10-18T04:25:00,0.2,静穏,0.6,東北東,7.5,92.6,0,0,0,12
267,2021-10-18T04:26:00,0.2,静穏,0.6,東北東,7.5,93,0,0,0,12
268,2021-10-18T04:27:00,0.2,静穏,0.6,東北東,7.5,92.8,0,0,0,12
269,2021-10-18T04:28:00,0.3,北北東,0.6,東北東,7.5,92.7,0,0,0,12
270,2021-10-18T04:29:00,0.3,北北東,0.6,東北東,7.5,93,0,0,0,12
271,2021-10-18T04:30:00,0.3,北北東,0.6,東北東,7.5,93.3,0,0,0,12
272,2021-10-18T04:31:00,0.3,北,0.6,東北東,7.5,93.5,0,0,0,12
273,2021-10-18T04:32:00,0.3,北,0.7,北北西,7.4,93,0,0,0,12
274,2021-10-18T04:33:00,0.3,北,0.7,北北西,7.4,93.2,0,0,0,12
275,2021-10-18T04:34:00,0.3,北北西,0.7,北北西,7.6,93.9,0,0,0,12
276,2021-10-18T04:35:00,0.4,北北西,0.7,北北西,7.6,94.5,0,0,0,12
277,2021-10-18T04:36:00,0.4,北,0.7,北北西,7.6,94.2,0,0,0,12
278,2021-10-18T04:37:00,0.4,北,0.7,北北西,7.5,93.8,0,0,0,12
279,2021-10-18T04:38:00,0.4,北北東,0.7,北北西,7.6,94,0,0,0,12
280,2021-10-18T04:39:00,0.4,北北東,0.7,北北西,7.6,94.1,0,0,0,12
281,2021-10-18T04:40:00,0.4,北北東,0.8,北東,7.7,94.4,0,0,0,12
282,2021-10-18T04:41:00,0.5,北北東,0.8,北東,7.6,94.2,0,0,0,12
283,2021-10-18T04:42:00,0.4,北北東,0.8,北東,7.4,93.5,0,0,0,12
284,2021-10-18T04:43:00,0.4,北東,0.8,北東,7.4,93.3,0,0,0,12
285,2021-10-18T04:44:00,0.4,北東,0.8,北東,7.4,93.5,0,0,0,12
286,2021-10-18T04:45:00,0.4,北東,0.8,北東,7.5,93.8,0,0,0,12
287,2021-10-18T04:46:00,0.4,北東,0.8,北東,7.5,94.2,0,0,0,12
288,2021-10-18T04:47:00,0.3,北東,0.8,北東,7.4,93.3,0,0,0,12
289,2021-10-18T04:48:00,0.3,北東,0.8,北東,7.3,93.4,0,0,0,12
290,2021-10-18T04:49:00,0.3,北東,0.8,北東,7.4,93.1,0,0,0,12
291,2021-10-18T04:50:00,0.3,北東,0.8,北北東,7.5,93.8,0,0,0,12
292,2021-10-18T04:51:00,0.3,北東,0.8,北北東,7.5,94.1,0,0,0,12
293,2021-10-18T04:52:00,0.3,北東,0.8,北北東,7.3,93.3,0,0,0,12
294,2021-10-18T04:53:00,0.2,静穏,0.7,北東,7.2,92.6,0,0,0,12
295,2021-10-18T04:54:00,0.2,静穏,0.5,東北東,7.2,92.9,0,0,0,12
296,2021-10-18T04:55:00,0.1,静穏,0.5,東北東,7.2,93.5,0,0,0,12
297,2021-10-18T04:56:00,0.2,静穏,0.5,東北東,7.2,93.5,0,0,0,12
298,2021-10-18T04:57:00,0.2,静穏,0.5,東北東,7.1,93.4,0,0,0,12
299,2021-10-18T04:58:00,0.2,静穏,0.5,東北東,7.1,93.5,0,0,0,12
300,2021-10-18T04:59:00,0.2,静穏,0.5,東北東,7.1,93.7,0,0,0,12
301,2021-10-18T05:00:00,0.2,静穏,0.6,北北西,7.2,94.1,0,0,0,12
302,2021-10-18T05:01:00,0.2,静穏,0.6,北北西,7.2,94.4,0,0,0,12
303,2021-10-18T05:02:00,0.2,静穏,0.6,北北西,7.3,94.6,0,0,0,12
304,2021-10-18T05:03:00,0.2,静穏,0.6,北北西,7.1,94.5,0,0,0,12
305,2021-10-18T05:04:00,0.3,北,0.7,東,7,93.7,0,0,0,12
306,2021-10-18T05:05:00,0.4,北,0.8,東,7,93.7,0,0,0,12
307,2021-10-18T05:06:00,0.4,北北東,0.8,東,6.9,93.7,0,0,0,12
308,2021-10-18T05:07:00,0.4,北東,0.8,東,7,93.7,0,0,0,12
309,2021-10-18T05:08:00,0.4,北東,0.8,東,6.9,94,0,0,0,12
310,2021-10-18T05:09:00,0.4,東北東,0.8,東,6.9,93.9,0,0,0,12
311,2021-10-18T05:10:00,0.4,東北東,0.8,東,6.8,94,0,0,0,12
312,2021-10-18T05:11:00,0.4,東,0.8,東,7,94,0,0,0,12
313,2021-10-18T05:12:00,0.4,東,0.8,東,6.9,94.5,0,0,0,12
314,2021-10-18T05:13:00,0.4,東,0.8,東,6.8,93.7,0,0,0,12
315,2021-10-18T05:14:00,0.3,東,0.8,東,6.8,93.5,0,0,0,12
316,2021-10-18T05:15:00,0.3,東,0.8,東南東,7,94.2,0,0,0,12
317,2021-10-18T05:16:00,0.3,東南東,0.8,東南東,6.9,94.9,0,0,0,12
318,2021-10-18T05:17:00,0.3,東,0.8,東南東,6.9,94.3,0,0,0,12
319,2021-10-18T05:18:00,0.3,東,0.8,東南東,6.9,94.1,0,0,0,12
320,2021-10-18T05:19:00,0.2,静穏,0.8,東南東,6.9,94.3,0,0,0,12
321,2021-10-18T05:20:00,0.2,静穏,0.8,東南東,7.1,94.8,0,0,0,12
322,2021-10-18T05:21:00,0.2,静穏,0.8,東南東,7,95,0,0,0,12
323,2021-10-18T05:22:00,0.2,静穏,0.8,東南東,7,94.6,0,0,0,12
324,2021-10-18T05:23:00,0.2,静穏,0.8,東南東,7,94.8,0,0,0,12
325,2021-10-18T05:24:00,0.2,静穏,0.8,東南東,6.9,94.4,0,0,0,12
326,2021-10-18T05:25:00,0.1,静穏,0.4,東南東,6.9,94.3,0,0,0,12
327,2021-10-18T05:26:00,0.1,静穏,0.3,北,7,94.7,0,0,0,12
328,2021-10-18T05:27:00,0.2,静穏,0.4,南南東,6.8,94.6,0,0,0,12
329,2021-10-18T05:28:00,0.2,静穏,0.5,南東,6.8,94.2,0,0,0,12
330,2021-10-18T05:29:00,0.2,静穏,0.5,南東,6.7,94.2,0,0,0,12
331,2021-10-18T05:30:00,0.2,静穏,0.5,南東,6.6,93.8,0,0,0,12
332,2021-10-18T05:31:00,0.2,静穏,0.5,南東,6.5,93.7,0,0,0,12
333,2021-10-18T05:32:00,0.2,静穏,0.5,南東,6.6,94.1,0,0,0,12
334,2021-10-18T05:33:00,0.2,静穏,0.7,南東,6.7,94.8,0,0,0,12
335,2021-10-18T05:34:00,0.2,静穏,0.7,南東,6.7,94.8,0,0,0,12
336,2021-10-18T05:35:00,0.2,静穏,0.7,南東,6.7,94.9,0,0,0,12
337,2021-10-18T05:36:00,0.3,南南東,0.7,南東,6.6,94.7,0,0,0,12
338,2021-10-18T05:37:00,0.3,南南東,0.7,南東,6.6,94.8,0,0,0,12
339,2021-10-18T05:38:00,0.2,静穏,0.7,南東,6.7,94.8,0,0,0,12
340,2021-10-18T05:39:00,0.2,静穏,0.7,南東,6.7,95.1,0,0,0,12
341,2021-10-18T05:40:00,0.2,静穏,0.7,南東,6.7,95.1,0,0,0,12
342,2021-10-18T05:41:00,0.2,静穏,0.7,南東,6.7,95,0,0,0,12
343,2021-10-18T05:42:00,0.2,静穏,0.7,南東,6.8,95.2,0,0,0,12
344,2021-10-18T05:43:00,0.2,静穏,0.7,南南東,6.9,95.3,0,0,0,12
345,2021-10-18T05:44:00,0.1,静穏,0.4,北,6.9,95.4,0,0,0,12
346,2021-10-18T05:45:00,0.1,静穏,0.4,北,7,95.5,0,0,0,12
347,2021-10-18T05:46:00,0.2,静穏,0.4,北,7.1,95.5,0,0,0,12
348,2021-10-18T05:47:00,0.2,静穏,0.4,北,6.9,95.2,0,0,0,12
349,2021-10-18T05:48:00,0.2,静穏,0.4,北,6.9,94.7,0,0,0,12
350,2021-10-18T05:49:00,0.2,静穏,0.4,北,7,94.9,0,0,0,12
351,2021-10-18T05:50:00,0.1,静穏,0.4,東,6.9,94.8,0,0,0,12
352,2021-10-18T05:51:00,0.1,静穏,0.4,東,6.9,94.6,0,0,0,12
353,2021-10-18T05:52:00,0.1,静穏,0.4,東,7,95.1,0,0,0,12
354,2021-10-18T05:53:00,0.1,静穏,0.4,東,6.9,95,0,0,0,12
355,2021-10-18T05:54:00,0.1,静穏,0.4,東,7,94.8,0,0,0,12
356,2021-10-18T05:55:00,0.2,静穏,0.5,東南東,7,94.8,0,0,0,12
357,2021-10-18T05:56:00,0.2,静穏,0.5,東南東,7,94.5,0,0,0,12
358,2021-10-18T05:57:00,0.2,静穏,0.6,東南東,7,94.5,0,0,0,12
359,2021-10-18T05:58:00,0.2,静穏,0.6,東南東,7,94.8,0,0,0,12
360,2021-10-18T05:59:00,0.3,東南東,0.6,東南東,7,94.5,0,0,0,12
361,2021-10-18T06:00:00,0.3,東,0.6,東南東,7.1,94.5,0,0,0,12
362,2021-10-18T06:01:00,0.3,東,0.6,東南東,7,94.1,0,0,0,12
363,2021-10-18T06:02:00,0.3,東南東,0.6,東南東,7.1,94.2,0,0,0,12
364,2021-10-18T06:03:00,0.3,東南東,0.6,東南東,7.1,94.4,0,0,0,12
365,2021-10-18T06:04:00,0.3,東,0.6,東南東,7.1,94.3,0,0,0,12
366,2021-10-18T06:05:00,0.3,東,0.6,東南東,7,94.1,0,0,0,12
367,2021-10-18T06:06:00,0.3,東,0.6,東南東,7.1,94.2,0,0,0,12
368,2021-10-18T06:07:00,0.2,静穏,0.6,東,7.2,94.6,0,0,0,12
369,2021-10-18T06:08:00,0.2,静穏,0.6,東,7.1,94.5,0,0,0,12
370,2021-10-18T06:09:00,0.2,静穏,0.6,東,6.9,93.8,0,0,0,12
371,2021-10-18T06:10:00,0.2,静穏,0.6,東,6.9,93.5,0,0,0,12
372,2021-10-18T06:11:00,0.2,静穏,0.6,北西,7,94.1,0,0,0,12
373,2021-10-18T06:12:00,0.2,静穏,0.6,北西,7.1,94.3,0,0,0,12
374,2021-10-18T06:13:00,0.2,静穏,0.6,北西,7.3,95.1,0,0,0,12
375,2021-10-18T06:14:00,0.2,静穏,0.6,北西,7.3,95.2,0,0,0,12
376,2021-10-18T06:15:00,0.2,静穏,0.6,北西,7,94.5,0,0,0,12
377,2021-10-18T06:16:00,0.1,静穏,0.6,北西,7.2,94.4,0,0,0,12
378,2021-10-18T06:17:00,0.1,静穏,0.6,北西,7.3,95,0,0,0,12
379,2021-10-18T06:18:00,0.1,静穏,0.6,北西,7.2,95.1,0,0,0,12
380,2021-10-18T06:19:00,0.1,静穏,0.4,東北東,7.2,94.4,0,0,0,12
381,2021-10-18T06:20:00,0.1,静穏,0.4,東北東,7.2,94.4,0,0,0,12
382,2021-10-18T06:21:00,0.1,静穏,0.5,東,7.2,94.5,0,0,0,12
383,2021-10-18T06:22:00,0.1,静穏,0.6,東南東,7.2,94.5,0,0,0,12
384,2021-10-18T06:23:00,0.1,静穏,0.6,東南東,7.2,94.7,0,0,0,12
385,2021-10-18T06:24:00,0.2,静穏,0.7,東,7.2,94.8,0,0,0,12
386,2021-10-18T06:25:00,0.2,静穏,0.7,東,7.1,94.8,0,0,0,12
387,2021-10-18T06:26:00,0.3,東北東,0.7,東,7.2,94.7,0,0,0,12
388,2021-10-18T06:27:00,0.3,東北東,0.7,東,7.2,95,0,0,0,12
389,2021-10-18T06:28:00,0.3,東北東,0.7,東,7.2,95,0,0,0,12
390,2021-10-18T06:29:00,0.3,東北東,0.7,東,7,94.7,0,0,0,12
391,2021-10-18T06:30:00,0.4,東北東,0.7,東,7.2,94.7,0,0,0,12
392,2021-10-18T06:31:00,0.4,東北東,0.7,東,7.3,95.2,0,0,0,12
393,2021-10-18T06:32:00,0.4,東北東,0.7,東,7.2,95.1,0,0,0,12
394,2021-10-18T06:33:00,0.4,東北東,0.7,東,7.2,95.1,0,0,0,12
395,2021-10-18T06:34:00,0.4,東北東,0.7,東,7.2,95.1,0,0,0,12
396,2021-10-18T06:35:00,0.3,東北東,0.6,東,7.3,95,0,0,0,12
397,2021-10-18T06:36:00,0.3,東北東,0.6,東,7.3,95.2,0,0,0,12
398,2021-10-18T06:37:00,0.2,静穏,0.6,東,7.4,95.3,0,0,0,12
399,2021-10-18T06:38:00,0.2,静穏,0.6,東,7.3,95.2,0,0,0,12
400,2021-10-18T06:39:00,0.2,静穏,0.6,東,7.3,95,0,0,0,12
401,2021-10-18T06:40:00,0.2,静穏,0.6,東,7.3,94.9,0,0,0,12
402,2021-10-18T06:41:00,0.1,静穏,0.6,東,7.3,95.1,0,0,0,12
403,2021-10-18T06:42:00,0.1,静穏,0.6,東,7.5,95.3,0,0,0,12
404,2021-10-18T06:43:00,0.1,静穏,0.5,東北東,7.4,95.3,0,0,0,12
405,2021-10-18T06:44:00,0,静穏,0.5,東北東,7.4,95,0,0,0,12
406,2021-10-18T06:45:00,0,静穏,0.5,東北東,7.5,95.1,0,0,0,12
407,2021-10-18T06:46:00,0,静穏,0.5,東北東,7.4,95.1,0,0,0,12
408,2021-10-18T06:47:00,0,静穏,0.5,東北東,7.4,94.6,0,0,0,12
409,2021-10-18T06:48:00,0,静穏,0.5,東北東,7.4,94.8,0,0,0,12
410,2021-10-18T06:49:00,0,静穏,0.5,東北東,7.4,94.6,0,0,0,12
411,2021-10-18T06:50:00,0,静穏,0.5,東北東,7.4,94.6,0,0,0,12
412,2021-10-18T06:51:00,0,静穏,0.5,東北東,7.5,94.8,0,0,0,12
413,2021-10-18T06:52:00,0,静穏,0.5,東北東,7.4,95,0,0,0,12
414,2021-10-18T06:53:00,0,静穏,0.2,東北東,7.5,94.8,0,0,0,12
415,2021-10-18T06:54:00,0,静穏,0.1,東南東,7.5,95.1,0,0,0,12
416,2021-10-18T06:55:00,0,静穏,0.1,東南東,7.6,95.3,0,0,0,12
417,2021-10-18T06:56:00,0,静穏,0.1,東南東,7.7,95.2,0,0,0,12
418,2021-10-18T06:57:00,0,静穏,0.5,東北東,7.8,95.3,0,0,0,12
419,2021-10-18T06:58:00,0.1,静穏,0.6,東,7.9,95.5,0,0,0,12
420,2021-10-18T06:59:00,0.1,静穏,0.7,東,7.9,95.4,0,0,0,12
421,2021-10-18T07:00:00,0.2,静穏,0.7,東,7.9,95.3,0,0,0,12
422,2021-10-18T07:01:00,0.2,静穏,0.7,東,8,95.4,0,0,0,12
423,2021-10-18T07:02:00,0.2,静穏,0.7,東,7.9,95,0,0,0,12
424,2021-10-18T07:03:00,0.2,静穏,0.7,東,7.9,94.7,0,0,0,12
425,2021-10-18T07:04:00,0.2,静穏,0.7,東,7.9,94.8,0,0,0,12
426,2021-10-18T07:05:00,0.2,静穏,0.7,東,7.8,94.4,0,0,0,12
427,2021-10-18T07:06:00,0.3,南東,0.7,東,8,94.5,0,0,0,12
428,2021-10-18T07:07:00,0.2,静穏,0.7,東,7.9,94.5,0,0,0,12
429,2021-10-18T07:08:00,0.2,静穏,0.7,東,8,94.5,0,0,0,12
430,2021-10-18T07:09:00,0.2,静穏,0.7,東,8,94.6,0,0,0,12
431,2021-10-18T07:10:00,0.1,静穏,0.6,東,8.2,94.9,0,0,0,12
432,2021-10-18T07:11:00,0.1,静穏,0.6,東,8.3,95.2,0,0,0,12
433,2021-10-18T07:12:00,0.1,静穏,0.6,東,8.4,95.1,0,0,0,12
434,2021-10-18T07:13:00,0.2,静穏,0.6,東,8.3,94.8,0,0,0,12